Skip Page Navigation
NASA JPL Caltech
NASA Logo - Jet Propulsion Laboratory + View the NASA Portal
+ Near-Earth Object (NEO) Program
Search JPL
JPL Home Earth Solar System Stars & Galaxies Technology
JPL Solar System Dynamics
BODIES ORBITS EPHEMERIDES TOOLS PHYSICAL DATA DISCOVERY FAQ SITE MAP
JPL Small-Body Database Browser
Search: [ help ]  
5272 Dickinson (1981 QH2)
Classification: Main-belt Asteroid          SPK-ID: 2005272
Ephemeris | Orbit Diagram | Orbital Elements | Physical Parameters | Discovery Circumstances ]

[ hide orbit diagram ]
Orbit Diagram
Note: Make sure you have Java enabled on your browser to see the applet. This applet is provided as a 3D orbit visualization tool. The applet was implemented using 2-body methods, and hence should not be used for determining accurate long-term trajectories (over several years or decades) or planetary encounter circumstances. For accurate long-term ephemerides, please instead use our Horizons system.
Orbit Viewer

Additional Notes: the orbits shown in the applet are color coded. The planets are white lines, and the asteroid/comet is a blue line. The bright white line indicates the portion of the orbit that is above the ecliptic plane, and the darker portion is below the ecliptic plane. Likewise for the asteroid/comet orbit, the light blue indicates the portion above the ecliptic plane, and the dark blue the portion below the ecliptic plane.

Orbit Viewer applet originally written and kindly provided by Osamu Ajiki (AstroArts), and further modified by Ron Baalke (JPL).


Orbital Elements at Epoch 2456400.5 (2013-Apr-18.0) TDB
Reference: JPL 1 (heliocentric ecliptic J2000)
 Element Value Uncertainty (1-sigma)   Units 
e .1928949975451752 6.8744e-08  
a 2.214340295490502 1.1909e-08 AU
q 1.787205129627679 1.5284e-07 AU
i 4.447110887608777 7.403e-06 deg
node 155.2432119581476 7.9486e-05 deg
peri 197.6874998722454 8.1893e-05 deg
M 208.2354090163528 2.2232e-05 deg
tp 2456907.879512318908
(2014-Sep-07.37951232)
7.7172e-05 JED
period 1203.552312505415
3.30
9.7093e-06
2.658e-08
d
yr
n .2991145430567899 2.413e-09 deg/d
Q 2.641475461353325 1.4206e-08 AU
  Orbit Determination Parameters
   # obs. used (total)      945  
   data-arc span      21516 days (58.91 yr)  
   first obs. used      1954-05-23  
   last obs. used      2013-04-19  
   planetary ephem.      DE405  
   SB-pert. ephem.      SB405-CPV-2  
   condition code      0  
   fit RMS      .56691  
   data source      ORB  
   producer      Otto Matic  
   solution date      2013-Apr-29 13:16:06  

Additional Information
 Earth MOID = .781838 AU 
 T_jup = 3.626 
[ show covariance matrix ]

Ephemeris | Orbit Diagram | Orbital Elements | Physical Parameters | Discovery Circumstances ]

Physical Parameter Table
Parameter Symbol Value Units Sigma Reference Notes
absolute magnitude H 14.5 mag n/a PDS3 (MPC 28113)  

5272 Dickinson (1981 QH2)          Discovered 1981-Aug-30 by Bowell, E. at Flagstaff
Reference: DISCOVERY.DBLast Updated: 2003-08-29

Alternate Designations
 1981 QH2 = 1971 OZ = 1971 QG2 
Ephemeris | Orbit Diagram | Orbital Elements | Physical Parameters | Discovery Circumstances ]
ABOUT SSD CREDITS/AWARDS PRIVACY/COPYRIGHT GLOSSARY LINKS
FirstGov 2013-May-19 19:59 UT
(server date/time)  
NASA Home Page
Site Manager:   Donald K. Yeomans
Webmaster  Alan B. Chamberlin